Voltar ao catálogo

COSMOS 2251 DEB

AtivoLEO
NORAD 37330·DEBRIS·🇷🇺 Russia

Lançado Jun 16, 1993 de Plesetsk Cosmodrome

Loading…

Próximas Passagens (próximas 24 horas)

TLE

AtualizadoSource: Space-Track

Época: Sep 13, 2026, 22:02 UTC

1 37330U 93036BKW 26256.91810374  .00000660  00000-0  14017-3 0  9999
2 37330  74.0166 129.4325 0058298 267.8676  91.5813 14.60248398903848

Acompanhe COSMOS 2251 DEB em tempo real com AllMySat

Download on the App Store